Location: Bramevaque
(42.9773°N, 0.5757°E)
Time: 06:59:31
(UTC+00:00)

Daily predictions for brighter satellites

Satellite Brightness Start Highest point End
(mag) Time Altitude Azimuth Time Altitude Azimuth Time Altitude Azimuth
Cosmos 1980 Rocket 2.3 19:38:12 10° NNW 19:43:57 82° ENE 19:49:36 10° SSE
COSMOS 2406 4.1 19:39:19 10° SSE 19:44:09 29° ESE 19:49:00 10° NE
CSL-04 Rocket 3.8 19:40:50 10° SSE 19:46:20 88° WSW 19:51:48 10° NNW
ISS -1.4 19:44:53 10° WNW 19:47:42 24° NNW 19:50:31 10° NE
Cosmos 968 Rocket 4.5 19:42:54 10° NNW 19:47:56 49° WSW 19:52:56 10° S
Cosmos 1461 3.7 19:45:05 10° SSE 19:48:04 24° ESE 19:51:04 10° ENE
Cosmos 2084 Rocket 3.7 19:44:03 10° NNW 19:48:12 55° NE 19:52:22 10° SE
Cosmos 1455 Rocket 3.1 19:44:21 10° S 19:48:40 59° E 19:52:59 10° NNE
Cosmos 1802 Rocket 4.0 19:43:25 10° S 19:49:31 66° E 19:55:36 10° NNE
SL-08 R/B 4.2 19:45:44 10° NE 19:49:56 30° E 19:54:02 10° SSE
Cosmos 1743 2.4 19:47:49 10° N 19:50:44 46° E 19:53:38 10° SSE
Delta 2 Rocket 4.2 19:48:50 10° SW 19:51:13 20° S 19:53:31 10° SE
Terra 2.2 19:46:58 10° SE 19:51:26 46° ENE 19:55:57 10° N
Cosmos 1892 Rocket 3.7 19:48:46 10° N 19:53:00 56° E 19:57:13 10° SSE
Okean O Rocket 3.0 19:52:52 10° ESE 19:56:14 23° ENE 19:59:38 10° NNE
Cosmos 2333 Rocket 3.6 19:54:58 10° N 19:59:35 24° NE 20:04:09 10° ESE
NOSS 3-3 (A) 3.6 19:56:49 10° SSW 20:01:50 79° ESE 20:07:45 10° NE
Okean 1 Rocket 4.2 19:57:53 10° SSW 20:02:07 48° WNW 20:06:26 10° N
Cosmos 1437 Rocket 4.3 20:03:18 12° ESE 20:05:07 16° E 20:07:21 10° NE
CZ-4B DEB 4.3 20:03:00 10° SSE 20:08:32 90° NW 20:14:06 10° NNW
Cosmos 2360 Rocket 4.0 20:05:35 10° N 20:09:23 18° NE 20:13:09 10° E
Milstar 3 4.2 20:04:54 10° WSW 20:09:50 21° S 20:15:14 11° SE
SL-24 R/B 4.5 20:06:38 10° N 20:11:00 77° WNW 20:15:56 10° SSW
Helios 1A Rocket 2.1 20:08:07 10° NNE 20:11:16 81° ESE 20:14:23 10° S
CZ-4B R/B 3.3 20:06:07 10° SSE 20:11:43 70° ENE 20:17:19 10° N
Cosmos 2233 Rocket 4.0 20:07:01 10° S 20:13:06 63° E 20:19:11 10° NNE
Cosmos 1302 Rocket 4.3 20:10:38 10° SSW 20:15:47 72° WNW 20:20:59 10° NNE
Okean-O 3.3 20:14:53 14° SE 20:18:15 37° ENE 20:22:18 10° N
Cosmos 909 Rocket 4.0 20:12:38 10° SSW 20:19:02 85° ESE 20:25:27 10° NNE
Cosmos 2219 Rocket 4.3 20:18:50 10° N 20:21:56 15° NE 20:25:01 10° ENE
Cosmos 1758 Rocket 4.4 20:18:58 10° N 20:23:01 34° ENE 20:25:51 17° SE
GEOS 3 Rocket 3.8 20:22:54 13° SSE 20:27:39 74° SW 20:33:03 10° NW
ADEOS 3.6 20:25:10 10° SSE 20:30:23 89° W 20:35:38 10° NNW
Gbstr 26 Del rocket 4.3 20:27:40 10° WNW 20:32:15 34° SW 20:35:24 14° SSE
Cosmos 1725 Rocket 4.5 20:26:56 10° SSW 20:33:07 64° W 20:39:20 10° N
Meteor 1-31 Rocket 4.4 20:31:24 10° SSW 20:34:22 27° W 20:37:22 10° NW
NOSS 3-3 (C) 3.9 20:29:17 10° SW 20:34:23 74° NW 20:40:29 10° NE
Cosmos 220 Rocket 4.5 20:31:55 16° SSE 20:34:40 34° ESE 20:38:23 10° NE
Longmarch 3A Rocket 4.2 20:36:41 10° SW 20:38:26 11° SSW 20:39:46 10° S
Cosmos 2322 Rocket 3.3 20:37:20 10° N 20:42:21 31° NE 20:45:49 17° ESE
Cosmos 2082 Rocket 3.4 20:38:35 10° SW 20:44:03 46° WNW 20:49:34 10° NNE
Cosmos 1602 Rocket 4.4 20:43:01 10° N 20:46:58 34° ENE 20:48:44 24° ESE
Cosmos 2237 4.4 20:41:21 10° NNW 20:47:04 71° WSW 20:51:30 17° SSE
Tsikada Rocket 4.1 20:41:23 10° N 20:47:33 79° W 20:53:27 11° S
NOSS 3-4 (A) 4.4 20:43:03 10° NNW 20:49:30 46° NE 20:55:07 18° ESE
DELTA 2 R/B (1) 3.6 20:44:30 10° W 20:50:00 61° S 20:53:40 21° ESE
NOSS 3-4 (C) 4.5 20:43:41 10° NNW 20:50:09 46° NE 20:55:45 18° ESE
CZ-4B R/B 3.5 20:49:58 26° E 20:50:54 30° ENE 20:53:57 10° N
Cosmos 2369 4.2 20:45:50 10° NNW 20:51:27 57° WSW 20:56:02 15° S
YAOGAN 11 4.1 20:49:45 10° NNE 20:54:13 86° ESE 20:58:38 10° SSW
Cosmos 2098 Rocket 3.8 20:53:24 26° SE 20:55:13 36° E 20:59:08 10° NNE
Cosmos 2151 2.9 20:53:12 10° N 20:57:17 62° E 20:59:05 31° SSE
Ariane Rocket 3.6 20:59:02 26° ESE 21:01:24 42° ENE 21:06:10 10° N
Cosmos 1626 Rocket 3.6 20:58:45 10° N 21:03:08 80° W 21:05:44 24° S
Spot 2 Rocket 3.8 21:03:00 18° S 21:06:40 64° WSW 21:11:41 10° NNW
Cosmos 2278 3.8 21:04:04 10° NNW 21:09:47 67° ENE 21:12:37 30° SE
SPOT 3 Rocket 3.5 21:09:25 30° SSE 21:11:57 69° ENE 21:17:04 10° N
Cosmos 1763 Rocket 4.1 21:10:53 31° SE 21:12:19 37° ESE 21:17:08 10° NE
USA 186 2.3 21:12:57 36° SW 21:13:30 41° W 21:16:09 10° NNW
SL-16 R/B 2.2 21:08:06 10° NNW 21:13:50 89° SW 21:16:43 30° SSE
USA 290 2.8 21:18:07 41° ENE 21:18:07 41° ENE 21:20:32 10° NNE
Cosmos 1606 Rocket 3.9 21:17:14 40° SE 21:18:07 46° E 21:22:14 10° NNE
Cosmos 1513 Rocket 4.4 21:15:01 17° S 21:19:55 87° E 21:26:05 10° N
Cosmos 1464 Rocket 4.0 21:18:41 28° SSE 21:21:56 62° E 21:28:02 10° NNE
Cosmos 1933 3.6 21:19:51 24° SSW 21:21:57 61° W 21:25:44 10° N
CZ-4B R/B 3.3 21:23:15 39° SSE 21:25:00 73° ENE 21:29:50 10° N
ISS -1.1 21:22:51 10° NW 21:25:18 19° N 21:27:45 10° NE
Okean 1 3.6 21:25:54 40° ENE 21:25:54 40° ENE 21:28:58 10° NNE
Cosmos 1726 Rocket 4.0 21:25:49 37° E 21:25:50 37° E 21:29:36 10° NNE
BREEZE-M DEB (TANK) 3.8 21:24:52 10° WNW 21:27:03 20° NNW 21:28:12 14° NNE
COSMOS 2406 4.4 21:22:44 10° SW 21:28:12 44° WNW 21:33:41 10° NNE
Terra 4.1 21:25:53 10° SW 21:29:11 19° W 21:32:30 10° NW
Okean O Rocket 2.9 21:29:45 18° SSW 21:32:14 33° W 21:36:08 10° NNW
Cosmos-2242 4.2 21:37:47 27° ENE 21:37:47 27° ENE 21:40:46 10° NNE
Cosmos 1437 Rocket 4.3 21:37:04 14° SW 21:39:31 29° WNW 21:42:42 10° NNW
Cosmos 1072 Rocket 4.5 21:36:50 26° S 21:40:39 88° W 21:47:02 10° N
Cosmos 1777 Rocket 3.9 21:36:34 10° NNW 21:41:49 86° ENE 21:43:21 47° SSE
Cosmos 2333 Rocket 2.5 21:38:39 10° NNW 21:44:15 58° WSW 21:46:30 35° S
Cosmos 1833 4.1 21:44:12 32° SSW 21:46:56 76° ESE 21:52:35 10° NNE
Okean 1-7 Rocket 3.5 21:44:57 10° N 21:49:27 84° W 21:50:19 58° S
CZ-2C R/B 3.4 21:52:45 36° NNW 21:52:45 36° NNW 21:54:34 10° NNW
Cosmos 1503 Rocket 3.9 21:46:41 10° NNW 21:51:53 81° ENE 21:53:04 54° SSE
Cosmos 2360 Rocket 2.1 21:48:24 10° NNW 21:54:06 84° WSW 21:55:44 49° SSE
Cosmos 2034 Rocket 3.9 21:58:36 40° S 22:01:04 82° E 22:07:26 10° N
Cosmos 1486 Rocket 4.4 21:57:37 10° NNW 22:02:45 54° WSW 22:04:10 42° SSW
Cosmos 2333 4.2 21:58:30 10° NNW 22:04:16 83° WSW 22:05:42 53° SSE
Cosmos 2219 Rocket 2.1 22:01:08 10° NNW 22:06:49 78° ENE 22:08:05 55° SE
Cosmos 1354 Rocket 3.9 22:01:40 10° NNW 22:06:55 75° ENE 22:07:46 61° SE
Cosmos 540 Rocket 3.5 22:07:44 43° SSW 22:09:27 77° WNW 22:14:37 10° NNE
Cosmos 1825 Rocket 3.9 22:09:09 10° NNW 22:13:24 54° W 22:13:51 51° WSW
Cosmos 2279 Rocket 4.4 22:16:39 41° ESE 22:17:28 43° E 22:23:19 10° NNE
Nadezhda 4 Rocket 4.3 22:11:48 10° NNW 22:17:46 57° W 22:20:00 37° SSW
Helios 1A 3.5 22:15:08 10° NNE 22:18:07 47° NE 22:18:07 47° NE
Cosmos 1953 Rocket 3.5 22:15:55 10° N 22:20:10 81° WNW 22:20:10 81° WNW
RESURS DK-1 4.0 22:17:29 10° N 22:20:46 24° NE 22:20:46 24° NE
Aureole 1 Rocket 4.1 22:16:48 10° NNW 22:22:49 69° ENE 22:24:34 50° SE
Cosmos 1634 Rocket 3.9 22:22:33 56° SSE 22:23:45 69° E 22:29:54 10° NNE
Cosmos 2322 Rocket 2.9 22:21:10 10° NW 22:26:29 42° WSW 22:27:37 38° SW
Cosmos 2058 Rocket 3.1 22:30:59 75° NNW 22:30:59 75° NNW 22:35:00 10° N
Cosmos 468 Rocket 3.9 22:30:14 71° SSW 22:30:51 90° W 22:36:09 10° NNE
Geosat 3.9 22:29:58 10° NNE 22:34:58 83° WNW 22:35:38 67° SW
BREEZE-M DEB 4.2 22:31:18 10° W 22:35:53 84° N 22:47:16 10° ENE
Cosmos 1076 Rocket 4.4 22:33:01 10° NNW 22:36:55 39° W 22:36:55 39° W
Cosmos 2026 Rocket 4.1 22:33:47 10° NNW 22:40:07 69° W 22:41:40 51° SSW
NOSS 3-4 (A) 4.4 22:33:50 10° NW 22:40:31 46° WSW 22:42:32 39° SSW
Cosmos 44 3.3 22:35:22 10° NNW 22:40:46 84° NE 22:41:01 80° ESE
NOSS 3-4 (C) 4.4 22:34:28 10° NW 22:41:11 47° WSW 22:43:10 39° SSW
Cosmos 2237 Rocket 3.8 22:40:29 10° N 22:45:04 25° NE 22:47:08 20° E
USA 234 3.8 22:44:24 10° ENE 22:49:36 40° ESE 22:49:36 40° ESE
Cosmos 1470 4.5 22:47:45 10° N 22:49:19 25° N 22:49:19 25° N
ARIANE 5 R/B 3.4 22:52:41 45° NE 22:52:41 45° NE 22:56:30 10° N
ALOS 2 3.6 22:54:46 38° NE 22:54:46 38° NE 22:58:25 10° N
Cosmos 2227 Rocket 4.2 22:55:50 14° E 22:55:50 14° E 22:57:43 10° ENE
Helios 1B rocket 3.7 22:58:18 33° NNW 22:58:18 33° NNW 23:00:22 10° NNW
SL-16 R/B 4.5 22:54:51 10° WNW 22:56:59 12° W 22:58:34 11° WSW
COSMOS 2428 2.7 22:53:22 10° NNW 22:59:03 67° ENE 22:59:34 63° E
ISS -1.4 22:59:34 10° NW 23:01:11 23° NNW 23:01:11 23° NNW
Cosmos 1898 Rocket 3.4 22:59:26 10° NNW 23:04:33 79° NE 23:04:33 79° NE
CZ-2C R/B 4.2 23:04:27 10° NNE 23:09:26 35° E 23:09:26 35° E
Meteor 1-11 Rocket 4.0 23:04:24 10° N 23:09:56 54° ENE 23:10:10 53° E
Meteor 1-10 Rocket 4.3 23:11:29 65° ESE 23:11:39 66° E 23:17:32 10° NNE
PSLV R/B 4.4 23:14:08 10° NNE 23:17:16 44° NE 23:17:16 44° NE
Meteor 1-27 Rocket 4.0 23:25:50 55° E 23:25:50 55° E 23:31:23 10° NNE
Cosmos 841 Rocket 3.8 23:27:23 58° W 23:27:37 59° WNW 23:32:48 10° NNE
Cosmos 2297 Rocket 2.2 23:27:59 69° E 23:27:59 69° E 23:33:17 10° NNE
NOSS 0 Rocket 3.7 23:24:09 10° NNW 23:30:21 88° ENE 23:30:48 78° SE
Cosmos 2142 Rocket 4.5 23:30:57 64° SW 23:31:45 72° W 23:38:00 10° N
Cosmos 2180 Rocket 4.5 23:32:26 65° SW 23:33:13 73° W 23:39:33 10° N
Spot 4 4.3 23:36:12 56° WNW 23:36:12 56° WNW 23:40:16 10° NNW
Cosmos 2360 Rocket 4.5 23:35:33 10° W 23:37:06 11° W 23:37:28 11° W
Meteor 1-14 Rocket 4.5 23:31:52 10° NNW 23:37:12 54° W 23:37:12 54° W
Cosmos 2221 3.7 23:39:35 36° NW 23:39:35 36° NW 23:42:42 10° N
Cosmos 1812 Rocket 4.4 23:39:58 48° NNW 23:39:58 48° NNW 23:43:28 10° N
MetOp-A 4.2 23:42:38 60° NE 23:42:38 60° NE 23:46:52 10° N
Cosmos 2322 4.2 23:37:08 10° NW 23:42:12 49° W 23:42:12 49° W
ACS3 Solar Sail 3.1 23:40:57 10° NE 23:45:45 25° E 23:46:10 24° E
Cosmos 2219 Rocket 4.2 23:46:55 10° WNW 23:49:46 15° W 23:49:46 15° W
Meteor 2-20 Rocket 4.2 23:54:12 77° E 23:54:14 77° E 23:59:56 10° N
